Weather in Ol'gino

Russia / Omsk Oblast     54°15′53″N   71°40′38″E
temp.,
°C
wind,
m/s
gust,
m/s
humid.,
%
clouds,
%
prec.,
mm/h
press.,
hPa
HPBL,
m
9 may, sun
sun900:00+17ese353395 0.0 101565
03:00+14e41037100 0.0 1014161
06:00+14e4844100 0.0 1014176
09:00+16e3542100 0.0 1015322
12:00+19e51234100 0.0 10141991
15:00+19e71337100 0.0 1013777
18:00+19e71335100 0.0 10131042
21:00+18ene91542100 0.0 1013752
10 may, mon
mon1000:00+15e91543100 0.0 1015729
03:00+13ene91441100 0.1 1015641
06:00+11ene81347100 0.4 1016793
09:00+11ene91243100 0.1 1018902
12:00+15ene9113275 0.1 10181267
15:00+17ene91025100 0.0 10191874
18:00+17ene8102584 0.0 10202026
21:00+14ne51037100 0.0 1021300
11 may, tue
tue1100:00+11ne49490 0.0 1022201
03:00+9nne48570 0.0 1023137
06:00+8nne48634 0.0 1024155
09:00+13nne46442 0.0 1024613
12:00+16nne68355 0.0 10241990
15:00+18nne78281 0.0 10242000
18:00+17nne67325 0.0 10251958
21:00+14nne34442 0.0 102668
12 may, wed
wed1200:00+12nne22501 0.0 102612
03:00+11nw2253100 0.0 102611
06:00+10wnw3454100 0.0 102645
09:00+16wnw453680 0.0 1026424
12:00+21wnw572787 0.0 10241652
15:00+23nw6824100 0.0 10222995
18:00+20n8842100 0.0 10211274
21:00+14nw3584100 1.6 1022221
13 may, thu
thu1300:00+12n5117534 2.3 1022527
03:00+10n510765 0.0 1023296
06:00+8n410755 0.0 1023289
09:00+12n58544 0.0 1024807
12:00+16n67315 0.0 10231533
15:00+18n56255 0.0 10221847
18:00+19nnw57325 0.0 10221950
21:00+16nw2247100 0.0 102211